DW0487 Weather Reports


time (UTC)temp
F
wind
direction
speed
knots
gust
knots
rain 1hr
in
rain 24hr
in
rain mn
in
humidity
%
barometer
mb
20260506131616 63 9 4.3 7.0 0.00 0.00 0.00 63 1002.2
20260506130059 63 30 2.6 7.0 0.00 0.00 0.00 63 1002.2
20260506124558 63 47 3.5 9.6 0.00 0.00 0.00 63 1002.3
20260506123057 63 42 6.1 12.2 0.00 0.00 0.00 61 1002.4
20260506121559 63 53 6.1 12.2 0.00 0.00 0.00 60 1002.4
20260506120104 65 24 7.0 12.2 0.00 0.00 0.00 58 1002.4
20260506114554 65 20 6.1 10.4 0.00 0.00 0.00 61 1002.4
20260506113052 64 9 7.8 11.3 0.00 0.00 0.00 59 1002.4
20260506111549 63 342 6.1 11.3 0.00 0.00 0.00 58 1002.9
20260506110057 64 343 7.0 12.2 0.00 0.00 0.00 59 1003.2
20260506104556 62 41 6.1 12.2 0.00 0.00 0.00 59 1003.3
20260506103045 60 28 6.1 10.4 0.00 0.00 0.00 60 1003.5
20260506101536 59 340 3.5 7.0 0.00 0.00 0.00 62 1003.6
20260506100033 58 31 5.2 9.6 0.00 0.00 0.00 63 1003.8
20260506094532 58 346 3.5 9.6 0.00 0.00 0.00 66 1003.8
20260506093028 57 9 5.2 7.8 0.00 0.00 0.00 66 1003.9
20260506091523 57 36 5.2 9.6 0.00 0.00 0.00 65 1004.0
20260506090019 57 21 2.6 5.2 0.00 0.00 0.00 65 1004.3
20260506084532 57 34 3.5 7.0 0.00 0.00 0.00 66 1004.3
20260506083017 57 346 4.3 8.7 0.00 0.00 0.00 65 1004.3
20260506081517 56 38 4.3 9.6 0.00 0.00 0.00 66 1004.2
20260506073003 53 59 2.6 6.1 0.00 0.00 0.00 76 1004.6
20260506071600 52 40 2.6 4.3 0.00 0.00 0.00 79 1004.8
20260506061555 45 46 0.0 1.7 0.00 0.00 0.00 89 1005.7
20260506044540 41 295 0.0 1.7 0.00 0.00 0.00 90 1006.5
20260506043044 41 159 0.0 0.0 0.00 0.00 0.00 90 1006.7
20260506041537 41 114 0.0 1.7 0.00 0.00 0.00 90 1006.3
20260506040038 41 210 0.0 1.7 0.00 0.00 0.00 90 1006.5
20260506034534 41 153 0.0 0.0 0.00 0.00 0.00 90 1006.5
20260506033033 41 227 0.9 1.7 0.00 0.00 0.00 89 1006.8
20260506031540 41 216 0.0 0.0 0.00 0.00 0.00 89 1006.8
20260506030030 41 96 0.0 0.9 0.00 0.00 0.00 89 1006.9
20260506024528 41 117 0.0 0.0 0.00 0.00 0.00 88 1007.4
20260506023047 42 117 0.0 0.0 0.00 0.00 0.00 88 1007.6
20260506021536 42 133 0.0 1.7 0.00 0.00 0.00 88 1007.8
20260506020026 42 309 0.0 0.0 0.00 0.00 0.00 87 1007.8
20260506014522 42 309 0.0 0.9 0.00 0.00 0.00 87 1007.5
20260506013029 43 173 0.0 0.0 0.00 0.00 0.00 86 1007.5
20260506011519 43 173 0.0 0.0 0.00 0.00 0.00 85 1007.5
20260506010016 44 173 0.0 0.0 0.00 0.00 0.00 85 1007.8
20260506004514 44 182 0.9 2.6 0.00 0.00 0.00 84 1007.9
20260506003014 45 230 0.0 0.0 0.00 0.00 0.00 83 1007.9
20260506001508 45 230 0.0 0.9 0.00 0.00 0.00 82 1007.9
20260506000006 46 230 0.0 1.7 0.00 0.00 0.00 81 1008.0
20260505234503 47 174 0.9 2.6 0.00 0.00 0.00 81 1008.1
20260505233105 48 238 0.0 0.9 0.00 0.00 0.00 80 1008.1
20260505231612 48 238 0.0 1.7 0.00 0.00 0.00 79 1008.1
20260505230055 49 238 0.9 3.5 0.00 0.00 0.00 78 1008.0
20260505224555 50 288 0.0 2.6 0.00 0.00 0.00 76 1008.0
20260505223050 51 281 1.7 3.5 0.00 0.00 0.00 75 1008.1
20260505221547 52 26 1.7 5.2 0.00 0.00 0.00 75 1008.1
20260505220048 52 21 2.6 7.0 0.00 0.00 0.00 74 1008.0
20260505214554 53 54 6.1 9.6 0.00 0.00 0.00 73 1008.1
20260505213044 53 23 2.6 8.7 0.00 0.00 0.00 72 1008.1
20260505211542 54 49 5.2 11.3 0.00 0.00 0.00 71 1008.0
20260505210044 55 24 3.5 9.6 0.00 0.00 0.00 71 1008.0
20260505204541 54 47 4.3 10.4 0.00 0.00 0.00 73 1007.8
20260505203101 53 66 6.1 10.4 0.00 0.00 0.00 76 1007.5
20260505201545 53 60 2.6 7.0 0.00 0.00 0.00 76 1007.4
20260505200048 54 36 1.7 3.5 0.00 0.00 0.00 75 1007.1
20260505194540 54 12 0.9 3.5 0.00 0.00 0.00 74 1006.5
20260505193039 55 26 4.3 7.8 0.00 0.00 0.00 73 1006.1
20260505191540 56 24 4.3 7.8 0.00 0.00 0.00 72 1005.8
20260505190138 57 42 3.5 11.3 0.00 0.00 0.00 71 1005.5
20260505184549 58 36 3.5 7.8 0.00 0.00 0.00 69 1005.5
20260505183049 59 44 4.3 7.8 0.00 0.00 0.00 64 1005.5
20260505181549 61 28 1.7 4.3 0.00 0.00 0.00 55 1005.0
20260505180029 62 84 1.7 5.2 0.00 0.00 0.00 46 1004.8
20260505174538 63 17 0.9 3.5 0.00 0.00 0.00 45 1004.6
20260505173029 64 248 1.7 6.1 0.00 0.00 0.00 44 1004.5
20260505171527 63 114 0.9 5.2 0.00 0.00 0.00 46 1004.4
20260505170001 63 209 3.5 9.6 0.00 0.00 0.00 45 1004.3
20260505164501 64 194 4.3 10.4 0.00 0.00 0.00 45 1004.1
20260505163051 65 130 5.2 11.3 0.00 0.00 0.00 43 1004.2
20260505161601 66 240 6.1 13.0 0.00 0.00 0.00 44 1004.1
20260505153059 68 162 5.2 10.4 0.00 0.00 0.00 40 1004.3
20260505151558 68 192 3.5 9.6 0.00 0.00 0.00 40 1004.4